This is the latest recevied weather packets stored in our database for station/object IK1QAD-3. If no packets are shown the sender has not sent any weather packets the latest 10 day(s).
| Time | Temp. | Humidity | Pressure | Rain* | Wind** | Luminosity | Snow |
|---|---|---|---|---|---|---|---|
| 1777713824 | 19.44° C | 49% | 1025.5 hPa | 0 mm | - | - | - |
| 1777713521 | 19.44° C | 47% | 1025.6 hPa | 0 mm | - | - | - |
| 1777713218 | 20° C | 50% | 1025.6 hPa | 0 mm | - | - | - |
| 1777712915 | 19.44° C | 45% | 1025.6 hPa | 0 mm | - | - | - |
| 1777712609 | 19.44° C | 52% | 1025.6 hPa | 0 mm | - | - | - |
| 1777712305 | 18.89° C | 55% | 1025.6 hPa | 0 mm | - | - | - |
| 1777712021 | 19.44° C | 55% | 1025.6 hPa | 0 mm | - | - | - |
| 1777711712 | 19.44° C | 56% | 1025.6 hPa | 0 mm | - | - | - |
| 1777711410 | 19.44° C | 55% | 1025.7 hPa | 0 mm | - | - | - |
| 1777711104 | 19.44° C | 58% | 1025.7 hPa | 0 mm | - | - | - |
| 1777710805 | 18.89° C | 57% | 1025.7 hPa | 0 mm | - | - | - |
| 1777710521 | 18.89° C | 58% | 1025.7 hPa | 0 mm | - | - | - |
| 1777710215 | 18.89° C | 56% | 1025.7 hPa | 0 mm | - | - | - |
| 1777709910 | 18.89° C | 58% | 1025.7 hPa | 0 mm | - | - | - |
| 1777709624 | 18.89° C | 58% | 1025.7 hPa | 0 mm | - | - | - |
| 1777709321 | 18.89° C | 58% | 1025.8 hPa | 0 mm | - | - | - |
| 1777709018 | 18.89° C | 59% | 1025.7 hPa | 0 mm | - | - | - |
| 1777708710 | 18.33° C | 59% | 1025.8 hPa | 0 mm | - | - | - |
| 1777708408 | 18.33° C | 59% | 1025.8 hPa | 0 mm | - | - | - |
| 1777708122 | 17.78° C | 61% | 1025.8 hPa | 0 mm | - | - | - |
| 1777707819 | 17.78° C | 59% | 1025.8 hPa | 0 mm | - | - | - |
| 1777707520 | 17.78° C | 59% | 1025.8 hPa | 0 mm | - | - | - |
| 1777707213 | 17.78° C | 60% | 1025.7 hPa | 0 mm | - | - | - |
| 1777706908 | 17.78° C | 61% | 1025.8 hPa | 0 mm | - | - | - |
| 1777706625 | 17.78° C | 61% | 1025.8 hPa | 0 mm | - | - | - |
* Rain latest hour (hover to see other rain measurements)
** Current wind speed in m/s (hover to see current wind gust speed)